TimeMST,TemperatureF,Dew PointF,Humidity,Sea Level PressureIn,VisibilityMPH,Wind Direction,Wind SpeedMPH,Gust SpeedMPH,PrecipitationIn,Events,Conditions,WindDirDegrees,DateUTC
12:53 AM,37.9,3.9,24,29.69,10.0,Variable,4.6,18.4,N/A,,Clear,0,2012-12-23 07:53:00
1:53 AM,27.0,8.1,45,29.74,10.0,NNW,12.7,-,N/A,,Clear,340,2012-12-23 08:53:00
2:53 AM,19.0,10.9,71,29.79,10.0,West,6.9,-,N/A,,Clear,280,2012-12-23 09:53:00
3:53 AM,15.1,10.0,80,29.88,10.0,NNW,4.6,-,N/A,,Clear,340,2012-12-23 10:53:00
4:53 AM,14.0,10.4,86,29.78,10.0,Calm,Calm,-,N/A,,Clear,0,2012-12-23 11:53:00
5:53 AM,14.0,10.0,84,29.92,10.0,WNW,6.9,-,N/A,,Clear,300,2012-12-23 12:53:00
6:53 AM,9.0,7.0,92,29.92,10.0,SE,3.5,-,N/A,,Partly Cloudy,140,2012-12-23 13:53:00
7:53 AM,8.1,6.1,92,29.94,10.0,Calm,Calm,-,N/A,,Clear,0,2012-12-23 14:53:00
8:53 AM,19.0,14.0,81,29.93,10.0,Calm,Calm,-,N/A,,Mostly Cloudy,0,2012-12-23 15:53:00
9:53 AM,21.0,14.0,74,29.99,10.0,North,5.8,-,N/A,,Overcast,10,2012-12-23 16:53:00
10:53 AM,28.0,16.0,61,29.97,10.0,WNW,5.8,-,N/A,,Mostly Cloudy,300,2012-12-23 17:53:00
11:53 AM,32.0,19.9,61,29.95,10.0,WNW,16.1,-,N/A,,Partly Cloudy,290,2012-12-23 18:53:00
12:53 PM,34.0,21.0,59,29.93,10.0,NW,13.8,-,N/A,,Partly Cloudy,310,2012-12-23 19:53:00
1:53 PM,36.0,19.9,52,29.96,10.0,NW,15.0,19.6,N/A,,Clear,310,2012-12-23 20:53:00
2:53 PM,35.1,19.9,54,30.01,10.0,NNW,17.3,-,N/A,,Clear,330,2012-12-23 21:53:00
3:53 PM,30.9,18.0,59,30.03,10.0,West,5.8,-,N/A,,Clear,280,2012-12-23 22:53:00
4:53 PM,19.9,14.0,78,30.08,10.0,West,8.1,-,N/A,,Clear,280,2012-12-23 23:53:00
5:53 PM,18.0,12.9,81,30.09,10.0,SW,3.5,-,N/A,,Clear,230,2012-12-24 00:53:00
6:53 PM,16.0,12.0,84,30.10,10.0,South,3.5,-,N/A,,Clear,180,2012-12-24 01:53:00
7:53 PM,14.0,10.9,88,30.12,10.0,South,3.5,-,N/A,,Clear,190,2012-12-24 02:53:00
8:53 PM,12.9,9.0,84,30.07,10.0,South,8.1,-,N/A,,Clear,180,2012-12-24 03:53:00
9:53 PM,9.0,6.1,88,30.07,10.0,South,3.5,-,N/A,,Clear,180,2012-12-24 04:53:00
10:53 PM,17.1,12.9,84,30.01,10.0,South,8.1,-,N/A,,Clear,170,2012-12-24 05:53:00
11:53 PM,16.0,12.0,84,29.98,10.0,Calm,Calm,-,N/A,,Clear,0,2012-12-24 06:53:00